Regional Weather Roundup
Issued by NWS

Home | Current Version | Previous Version | Text Only | Print | Product List | Glossary On
Versions: 1 2 3 4 5 6 7 8 9 10 11 12 13 14 15 16 17 18 19 20 21 22 23 24 25 26 27 28 29 30 31 32 33 34 35 36 37 38 39 40 41 42 43 44 45 46 47 48 49 50
000
ASUS44 KFWD 251715
RWRTX
NORTH TEXAS HOURLY WEATHER ROUNDUP
NATIONAL WEATHER SERVICE FORT WORTH TX
1100 AM CST SAT FEB 25 2017

NOTE: "FAIR" INDICATES FEW OR NO CLOUDS BELOW 12,000 FEET WITH NO
SIGNIFICANT WEATHER AND/OR OBSTRUCTIONS TO VISIBILITY.

TXZ118-119-251800-
DALLAS/FORT WORTH METROPLEX

CITY           SKY/WX    TMP DP  RH WIND       PRES   REMARKS
DFW AIRPORT    SUNNY     45  24  43 N9        30.28R
DALLAS LOVE    SUNNY     45  24  43 N6        30.30R
FTW MEACHAM    SUNNY     44  23  43 NE10      30.29S WCI  39
DAL-EXECUTIVE  SUNNY     44  24  45 N10       30.28R WCI  39
FTW-ALLIANCE   SUNNY     42  22  44 N9        30.29S WCI  37
FTW-NAS-JRB    SUNNY     43  24  47 N8        30.30S WCI  38
FTW-SPINKS     SUNNY     45  27  49 N6        30.30S
ARLINGTON      SUNNY     44  22  41 N12       30.29S WCI  38
GRAND PRAIRIE  SUNNY     43  23  45 N8        30.31R WCI  38
ADDISON        SUNNY     39  23  52 N10       30.30R WCI  32
MESQUITE       SUNNY     43  25  49 NE5       30.30R
LANCASTER      SUNNY     43  25  48 N5        30.30S
$$

TXZ091>094-102>105-117-120-121-131>134-251800-
NORTH CENTRAL TEXAS

CITY           SKY/WX    TMP DP  RH WIND       PRES   REMARKS
SHRMAN/DENISON SUNNY     39  20  46 N6        30.30R WCI  35
GAINESVILLE    SUNNY     38  19  45 N6        30.31R WCI  34
BOWIE          SUNNY     40  21  47 N3        30.29S
BRIDGEPORT     SUNNY     39  24  54 N7        30.31F WCI  34
DECATUR        SUNNY     40  19  43 E3        30.28S
DENTON         SUNNY     40  24  53 VRB3      30.30R
MCKINNEY       SUNNY     42  22  44 N8        30.29R WCI  37
BONHAM         SUNNY     39  21  48 NW7       30.28S WCI  34
GREENVILLE       N/A     41  23  48 CALM      30.29R
ROCKWALL       SUNNY     42  24  48 N3        30.30R
TERRELL        SUNNY     44  24  45 VRB3      30.29R
WAXAHACHIE     SUNNY     44  26  48 N5        30.29R
GRANBURY       SUNNY     45  23  42 N6        30.30S
$$

TXZ083>090-098>101-113>116-127>130-139>142-154-155-251800-
WESTERN NORTH TEXAS

CITY           SKY/WX    TMP DP  RH WIND       PRES   REMARKS
WICHITA FALLS  SUNNY     36  19  50 MISG      30.30S
WF-KICKAPOO    SUNNY     36  19  49 CALM      30.31F
VERNON         SUNNY     36  13  40 NE3       30.30F
ABILENE        SUNNY     42  21  43 E8        30.25F WCI  37
ABILENE-DYESS  SUNNY     42  23  45 NE7       30.23F WCI  38
GRAHAM         SUNNY     41  25  52 E3        30.27F
BRECKENRIDGE   SUNNY     44  22  41 NE5       30.26F
CISCO          SUNNY     41  21  45 NE7G14    30.25S WCI  36
RANGER         SUNNY     43  23  45 NE7       30.26F WCI  39
MINERAL WELLS  SUNNY     43  24  47 MISG      30.27F
STEPHENVILLE   SUNNY     44  22  41 NE5       30.28S
COMANCHE       SUNNY     44  24  46 NE3       30.26S
BROWNWOOD      SUNNY     46  23  39 NE9       30.25F
COLEMAN        SUNNY     46  20  35 E7        30.25S
$$

TXZ143>147-156>162-174-175-251800-
CENTRAL TEXAS

CITY           SKY/WX    TMP DP  RH WIND       PRES   REMARKS
WACO           SUNNY     48  26  42 N10       30.27R
WACO-TSTC      SUNNY     46  27  46 N7        30.28R
WACO-MCGREGOR  SUNNY     46  27  47 NE8G17    30.28R
HILLSBORO      SUNNY     46  26  45 N8        30.27S
CORSICANA      SUNNY     46  26  45 VRB6      30.28S
MEXIA          SUNNY     46  24  42 N5        30.25S
HEARNE         SUNNY     51  25  36 N7        30.25S
CAMERON        SUNNY     49  28  44 N8        30.25S
TEMPLE         SUNNY     48  24  39 N10       30.26
KILLEEN        SUNNY     47  24  40 N10       30.25R
KILLEEN-SKYLRK SUNNY     48  23  37 NE9       30.26S
FORT HOOD      SUNNY     48  22  36 NE7       30.23S
GATESVILLE     SUNNY     46  27  46 NE6G17    30.28F
HAMILTON       SUNNY     46  24  42 N5        30.26S
LAMPASAS       SUNNY     48  28  46 NE6       30.24S
$$

TXZ095>097-106>112-122>126-135>138-148>153-164>167-251800-
EAST TEXAS

CITY           SKY/WX    TMP DP  RH WIND       PRES   REMARKS
PARIS          SUNNY     43  19  39 W5        30.26R
SULPHUR SPRNGS SUNNY     42  25  50 CALM      30.30R
MOUNT PLEASANT SUNNY     44  24  44 CALM      30.28R
GILMER         SUNNY     43  22  43 NW7       30.26R WCI  39
MINEOLA        SUNNY     43  25  49 NW7       30.27R WCI  39
TYLER          SUNNY     47  22  37 NE8       30.25R
LONGVIEW       SUNNY     48  25  40 VRB6      30.24R
MARSHALL       SUNNY     45  21  39 NW6       30.26R
PALESTINE      SUNNY     49  27  43 NW6       30.26S
JACKSONVILLE   SUNNY     46  26  46 N7        30.25R
HENDERSON      SUNNY     47  25  41 N6        30.25R
CENTER         SUNNY     53  27  36 N5        30.22S
NACOGDOCHES    SUNNY     54  27  35 N3        30.20S
LUFKIN         SUNNY     52  26  36 VRB6      30.21S
$$

SUPPLEMENTAL OBSERVATIONS (CENTRAL)

CITY           SKY/WX    TMP DP  RH WIND       PRES   REMARKS
DENISON DAM      N/A     37  23  56 NW5         N/A  WCI  34
PAT MAYSE LAKE   N/A     41  14  33 NW5         N/A  WCI  38
GREENVILLE       N/A     43  23  45 N5          N/A
CEDAR HILL       N/A     46  25  42 N7          N/A
ATHENS           N/A     48  25  40 VRB5        N/A
LAKE LIMESTONE   N/A     52  27  37 VRB13       N/A
MCGREGOR         N/A     48  27  43 NE12        N/A
TEMPLE           N/A     50  25  37 NE14        N/A
$$

SUPPLEMENTAL OBSERVATIONS (WEST)

CITY           SKY/WX    TMP DP  RH WIND       PRES   REMARKS
MILLERS CREEK    N/A     39  21  48 NE7         N/A  WCI  34
POSSUM KINGDOM   N/A     45  25  45 E3          N/A
GRANBURY         N/A     45  25  45 N8          N/A
COMANCHE         N/A     45  23  42 E7          N/A
HAMBY            N/A     45  21  39 E7          N/A
IVIE RESERVOIR   N/A     46  23  39 E8          N/A
COLORADO BEND    N/A     48  25  40 E7          N/A
$$

SUPPLEMENTAL OBSERVATIONS (EAST)

CITY           SKY/WX    TMP DP  RH WIND       PRES   REMARKS
CLARKSVILLE      N/A     45  21  39 N5          N/A
TEXARKANA        N/A     46  23  39 NE3         N/A
LINDEN           N/A     48  23  37 NW5         N/A
CADDO LAKE       N/A    N/A N/A N/A NW5         N/A
GILMER           N/A     46  23  39 N5          N/A
HENDERSON        N/A     48  25  40 N7          N/A
LUFKIN           N/A     54  28  37 MISG        N/A
N SABINE NF      N/A     54  28  37 MISG        N/A
S SABINE NF      N/A     52  30  43 NW5G13      N/A
$$

SUPPLEMENTAL OBSERVATIONS ARE A COLLECTION OF AUTOMATED INSTRUMENTS
THAT ARE MAINTAINED BY A VARIETY OF FEDERAL AND STATE AGENCIES.
CERTAIN ELEMENTS...SUCH AS HUMIDITY VALUES AND SUSTAINED WIND
SPEEDS...MAY BE APPROXIMATED.





USA.gov is the U.S. government's official web portal to all federal, state and local government web resources and services.